Regional Weather Roundup
Issued by NWS Cleveland, OH

Home | Current Version | Previous Version | Graphics & Text | Print | Product List | Glossary On
Versions: 1 2 3 4 5 6 7 8 9 10 11 12 13 14 15 16 17 18 19 20 21 22 23 24 25 26 27 28 29 30 31 32 33 34 35 36 37 38 39 40 41 42 43 44 45 46 47 48 49 50
000
ASUS41 KCLE 221512
RWRCLE
OHIO REGIONAL WEATHER ROUNDUP
NATIONAL WEATHER SERVICE WILMINGTON, OH
1100 AM EDT THU JUN 22 2017

NOTE: "FAIR" INDICATES FEW OR NO CLOUDS BELOW 12,000 FEET WITH NO
SIGNIFICANT WEATHER AND/OR OBSTRUCTIONS TO VISIBILITY.

OHZ001>008-015>018-024>027-034-035-043-044-221600-
   NORTHWEST OHIO

CITY           SKY/WX    TMP DP  RH WIND       PRES   REMARKS
DEFIANCE       PTSUNNY   75  67  76 SW7       29.95S
FINDLAY        PTSUNNY   79  66  64 SW12      29.96S
TOLEDO EXPRESS LGT RAIN  75  70  84 SW9       29.93F
TOLEDO EXEC    PTSUNNY   78  68  71 SW13      29.94S
LIMA           FAIR      81  71  71 SW10      29.97F
$$

OHZ009>014-019>023-028>033-038-089-221600-
   NORTHEAST OHIO

CITY           SKY/WX    TMP DP  RH WIND       PRES   REMARKS
CLE-HOPKINS    PTSUNNY   81  69  67 SW10      29.98S
CLE-LAKEFRONT  PTSUNNY   80  67  64 W5        29.94F
CUY CO. ARPT   PTSUNNY   81  68  65 W9        29.97F
LORAIN-ELYRIA  PTSUNNY   80  65  59 SW8       29.97R
ASHTABULA      FAIR      69  63  81 S6        29.99S
AKRON-CANTON   PTSUNNY   80  66  62 W6        30.00F
WOOSTER        FAIR      83  65  54 W9        30.00F
MANSFIELD      CLOUDY    79  67  66 SW14      30.00S
YOUNGSTOWN     PTSUNNY   77  66  68 SW7       30.00R THUNDER
$$

OHZ042-051>053-060>062-070>072-077>081-221600-
  SOUTHWEST OHIO

CITY           SKY/WX    TMP DP  RH WIND       PRES   REMARKS
CINC-COVINGTON PTSUNNY   77  69  76 S9        30.04R
CINC-LUNKEN    FAIR      79  72  79 S8        30.03R
HAMILTON       FAIR      80  71  74 MISG      30.03S
DAYTON         PTSUNNY   81  70  69 SW14      30.02S
WRIGHT-PAT AFB MOSUNNY   81  71  71 SW10      30.00F
DAYTON GENERAL FAIR      80  69  69 SW15      30.02S
WILMINGTON     FAIR      79  71  76 SW12      30.03S
$$

OHZ036-037-039>041-045>050-054>059-063>069-073>076-082>088-221600-
  CENTRAL AND SOUTHEAST OHIO

CITY           SKY/WX    TMP DP  RH WIND       PRES   REMARKS
COLUMBUS       PTSUNNY   82  70  66 SW9       30.01F
OSU AIRPORT    PTSUNNY   82  71  69 SW12      30.01F
BOLTON FIELD   SUNNY     81  72  74 SW9       30.03S
RICKENBACK AFB FAIR      81  70  68 SW14      30.01S
NEWARK         FAIR      82  67  60 SW9       30.01F
MARION         CLOUDY    78  67  68 SW12      30.00F
LANCASTER      FAIR      81  69  67 SW9       30.03S
ZANESVILLE     FAIR      80  67  64 SW8G16    30.03S
NEW PHILLY     FAIR      80  70  71 S6        30.02S
$$




USA.gov is the U.S. government's official web portal to all federal, state and local government web resources and services.